Wetbulb
55.61 55.75 55.75 55.64 55.79 55.70 55.77 56.08 56.42 56.75 56.99 57.29 57.37 57.36 57.44 57.31 56.59 58.91 55.27 59.33 60.99 63.17 61.28 57.51 56.52 56.39 55.94 54.85 55.46 56.71 53.58 52.68 53.08 54.50 55.43 63.15 62.31 64.95 65.61 64.46 66.13 67.20 66.31 69.92 71.53
54.91 55.12 55.10 55.14 55.19 55.34 55.50 55.70 56.01 56.29 56.56 56.58 56.85 56.84 56.90 56.42 57.71 56.55 61.38 62.75 63.50 64.82 56.62 54.48 54.11 55.02 53.04 53.40 54.07 53.25 53.23 53.94 56.47 57.10 56.70 60.27 61.92 64.20 63.81 64.28 64.98 66.30 69.02 71.51 70.75
54.60 54.80 54.85 54.86 54.97 55.12 55.22 55.43 55.67 55.95 56.29 56.04 56.32 56.41 56.14 57.09 56.65 57.32 67.45 63.87 64.76 64.15 56.27 56.27 55.53 54.19 52.14 53.38 52.74 53.31 52.31 56.47 57.18 57.83 59.30 58.57 60.56 64.78 63.72 62.73 65.59 65.90 68.41 70.24 69.06
54.38 54.40 54.49 54.49 54.53 54.75 55.05 55.36 55.57 55.75 55.65 55.78 55.82 55.78 55.63 58.95 48.53 59.25 68.74 69.32 66.04 61.48 55.89 54.88 53.58 51.76 50.98 50.03 53.10 50.40 53.65 55.37 57.08 56.81 59.22 58.49 59.69 62.49 64.81 64.99 67.81 68.39 70.24 70.08 68.96
54.00 54.18 54.20 54.19 54.31 54.66 54.82 55.11 55.10 55.28 55.20 54.83 55.18 55.16 57.60 54.31 51.95 63.81 67.18 65.83 61.76 58.12 55.28 53.64 52.19 52.05 49.97 51.28 51.51 50.13 52.44 53.66 54.30 55.19 59.31 59.66 57.49 60.74 64.18 67.80 68.23 68.75 70.06 69.79 69.37
53.74 53.73 53.68 53.95 54.03 54.22 54.48 54.45 54.67 54.52 54.71 54.70 54.73 54.72 57.27 49.28 56.09 62.49 62.76 60.04 57.48 56.78 55.48 54.86 52.71 52.94 51.58 50.93 50.63 52.01 51.65 51.61 52.55 54.07 56.80 56.73 57.42 61.03 63.21 68.45 67.66 68.22 68.83 70.08 69.39
54.17 53.69 53.47 53.87 53.99 54.23 54.33 54.78 54.50 54.95 55.91 55.21 55.12 57.55 54.46 51.98 60.79 62.73 59.66 58.60 57.66 56.48 53.81 55.47 53.81 52.61 53.46 50.67 53.00 52.14 49.45 51.66 53.40 54.87 55.22 58.43 57.36 58.79 62.82 67.14 67.02 67.56 68.54 69.41 69.84
54.16 53.93 53.40 53.61 53.78 54.04 54.32 54.23 54.70 56.59 55.87 55.26 55.93 58.80 52.94 56.09 58.84 58.57 59.41 57.65 58.31 57.34 54.48 56.45 55.03 54.60 54.30 54.64 52.49 50.53 50.70 48.01 52.86 56.51 57.46 58.34 50.95 57.62 62.16 65.98 65.97 67.30 68.28 68.78 69.96
53.89 53.56 53.48 53.46 53.73 54.05 53.84 53.99 55.99 56.75 56.25 56.68 59.62 57.13 52.42 57.17 56.18 59.07 57.94 57.59 57.54 56.21 55.52 54.55 54.34 54.16 53.72 50.64 48.86 49.69 45.97 47.19 51.04 56.83 56.85 57.50 51.50 57.38 64.09 65.22 65.91 67.21 68.18 68.01 67.27
53.56 53.39 53.29 53.27 53.39 53.45 53.13 53.41 58.25 57.47 59.09 60.38 59.73 55.21 55.27 53.65 55.98 57.85 59.26 59.15 56.93 54.50 52.97 53.72 54.02 51.54 51.38 49.44 44.48 46.09 46.28 47.70 48.57 56.39 57.88 55.77 54.11 61.62 63.94 64.09 65.27 67.11 67.94 66.34 65.48
53.48 53.18 52.94 53.21 53.49 53.31 55.81 58.95 56.71 55.99 56.69 52.15 52.55 51.95 52.40 55.62 56.66 56.78 59.09 57.57 58.38 55.67 50.33 52.69 49.56 47.43 48.68 50.03 49.67 48.80 48.10 47.53 49.90 55.68 56.66 55.47 55.15 57.55 64.06 64.49 64.49 66.30 67.23 67.25 66.96
52.94 53.12 53.02 53.25 52.98 53.19 56.82 55.38 53.78 54.88 51.71 53.89 53.20 53.84 55.05 55.76 51.67 54.13 59.26 54.70 53.77 50.75 51.87 50.00 47.34 50.04 50.42 49.96 48.65 47.94 47.44 47.80 49.93 52.74 56.92 55.06 55.14 56.96 60.97 63.97 64.87 65.29 66.48 67.25 67.44
52.29 52.36 52.67 53.09 52.88 56.86 56.50 54.37 57.20 57.37 52.20 51.97 53.41 53.44 53.82 54.66 51.60 53.28 57.05 55.42 52.62 50.63 50.37 48.32 49.63 50.73 49.41 48.79 47.69 48.27 47.28 47.70 48.01 50.69 54.46 52.92 51.27 53.72 58.33 62.11 64.58 66.07 67.27 67.96 67.03
52.05 52.00 52.63 51.77 53.98 56.70 55.30 56.11 59.34 57.67 50.64 48.63 50.41 52.91 54.71 54.89 51.71 55.29 57.44 55.15 52.60 50.11 50.21 49.84 51.86 49.78 49.37 48.36 49.58 46.94 50.51 48.85 48.06 48.30 46.15 53.29 44.80 51.87 55.59 58.20 61.21 63.98 66.04 67.13 67.08
51.61 52.03 52.14 50.47 56.82 55.03 56.09 59.41 58.63 56.49 41.21 49.10 50.41 56.48 55.22 52.51 52.72 53.76 56.74 55.50 51.49 50.89 51.53 49.53 49.95 49.70 48.95 49.05 50.91 48.98 51.50 50.50 50.01 49.13 49.00 49.52 47.35 50.16 57.63 56.97 59.92 62.65 65.07 66.74 68.06
51.40 51.85 51.60 55.61 59.20 58.01 59.36 58.72 56.92 46.97 39.02 47.18 51.12 51.43 52.04 52.72 52.45 54.12 53.00 56.28 55.67 51.87 52.30 51.60 53.70 52.36 51.44 52.03 52.25 52.67 51.15 51.04 51.26 49.28 44.29 47.76 48.20 48.09 53.26 55.27 58.32 63.00 64.66 66.18 67.45
50.95 50.77 53.05 56.63 58.34 60.77 59.61 55.85 46.20 41.04 47.37 46.30 48.01 50.35 50.90 50.65 51.45 51.59 50.99 51.10 50.43 47.65 48.17 50.59 50.90 53.23 53.08 50.76 52.96 51.99 50.04 44.07 43.25 43.17 42.50 49.53 47.14 49.31 53.58 55.14 56.29 58.55 63.94 66.08 67.45
50.11 49.23 53.25 57.63 60.04 60.87 57.09 49.49 40.74 43.47 45.36 49.85 49.49 50.15 48.07 51.07 51.15 51.46 50.76 50.40 53.97 52.12 48.77 46.29 45.19 50.23 52.89 51.37 49.87 50.24 49.64 45.36 39.38 41.26 43.94 48.94 44.61 48.58 55.01 57.12 59.77 61.57 64.38 66.31 67.29
49.04 59.54 60.67 58.72 59.97 61.31 52.58 44.00 44.42 45.21 48.38 48.15 48.87 46.52 47.14 48.83 50.00 50.86 52.29 51.25 53.04 54.99 49.64 47.84 46.93 52.87 53.29 53.83 52.74 50.06 47.62 51.53 47.01 47.93 44.44 46.56 49.46 52.83 54.88 55.49 58.64 60.97 62.59 65.22 67.17
54.16 58.46 57.29 57.42 60.45 59.69 49.11 44.06 47.74 49.46 50.27 50.60 45.08 48.00 44.81 46.44 46.72 48.09 49.92 52.40 51.22 54.72 56.16 51.92 46.55 51.56 52.75 54.17 53.70 51.96 52.75 46.68 47.89 40.82 39.88 44.77 46.55 47.34 51.60 53.56 55.35 58.78 62.89 65.43 66.90
55.36 54.15 56.91 57.15 60.66 55.52 46.97 48.08 48.72 49.49 50.93 49.66 47.08 46.61 47.18 45.92 46.78 46.87 48.00 51.16 51.66 52.56 54.86 53.29 49.77 49.33 51.88 50.58 49.57 51.15 50.10 50.05 49.87 47.89 42.42 41.27 45.22 53.77 53.16 55.72 57.00 57.99 62.35 65.86 65.95
53.34 49.52 56.52 56.71 52.79 53.15 50.26 48.67 44.98 48.02 50.75 51.16 51.44 49.40 47.77 47.40 45.99 46.05 47.34 50.74 50.67 52.99 50.03 54.18 50.43 45.62 46.74 51.30 53.07 53.62 51.37 51.85 46.99 45.39 47.92 46.40 46.19 54.86 55.65 57.47 59.03 59.02 60.39 65.32 66.12
49.32 50.32 56.48 55.79 48.78 48.58 47.43 46.13 47.14 47.22 49.36 50.01 49.65 50.54 50.69 47.68 44.37 47.46 49.87 52.68 50.18 49.51 49.79 53.22 48.19 43.05 44.34 48.39 52.34 50.30 51.99 51.56 50.64 50.95 46.19 44.82 46.77 55.52 56.61 57.79 59.52 59.53 61.29 63.93 64.93
49.23 47.46 50.96 51.86 50.76 47.97 46.51 45.82 44.81 47.24 47.24 50.01 50.44 49.98 48.38 47.11 49.36 46.02 46.24 49.29 49.42 49.51 52.77 54.19 50.03 46.78 42.09 45.17 49.38 47.22 48.54 50.06 50.09 45.82 46.49 46.93 48.88 53.33 55.10 56.56 58.56 59.96 60.73 63.23 64.18
48.57 46.52 45.44 45.94 45.41 46.60 46.41 44.90 43.96 43.37 46.88 48.76 47.00 46.87 46.32 44.42 45.87 46.15 47.20 47.30 47.73 51.10 51.95 51.05 45.90 47.26 47.40 47.31 47.86 47.26 46.94 48.05 47.84 48.67 45.83 47.33 47.66 50.78 53.80 56.18 58.69 60.15 59.92 61.89 63.39
46.50 45.34 46.82 46.04 42.85 43.04 40.68 43.39 43.11 43.44 43.98 44.62 45.12 44.28 45.90 45.17 46.06 44.29 44.07 45.04 44.42 48.06 47.08 47.88 42.66 44.78 42.99 44.61 43.55 41.85 44.00 45.16 46.08 47.44 48.34 48.72 48.19 53.66 55.68 58.47 58.95 60.13 60.09 60.35 62.97
49.49 49.90 45.97 40.17 42.36 42.47 44.77 42.90 42.06 43.07 43.66 45.12 43.72 44.01 43.53 44.89 46.67 47.72 47.93 47.78 47.27 45.41 44.85 44.69 43.84 42.68 39.56 43.08 43.68 40.92 44.72 45.79 47.05 48.56 48.57 45.78 51.03 56.36 56.32 56.98 58.60 59.33 59.68 59.93 62.13
MSLP
1018.97 1018.61 1018.23 1017.86 1017.77 1017.19 1016.89 1016.33 1016.01 1015.86 1015.32 1014.82 1014.70 1014.55 1014.42 1014.14 1013.63 1013.05 1010.67 1009.27 1009.03 1009.69 1009.68 1008.86 1008.65 1008.32 1007.92 1007.10 1007.03 1006.28 1004.74 1003.12 1002.82 1003.15 1003.25 1005.02 1005.53 1006.52 1007.07 1007.14 1007.59 1007.93 1008.28 1009.31 1011.24
1018.97 1018.54 1018.06 1017.73 1017.33 1017.08 1016.68 1016.03 1015.71 1015.46 1015.22 1014.57 1014.51 1014.35 1014.17 1013.94 1012.61 1010.42 1009.19 1009.27 1009.48 1009.52 1008.91 1008.00 1007.60 1007.66 1007.11 1006.58 1006.46 1005.70 1004.22 1003.01 1002.88 1003.16 1003.38 1004.59 1005.24 1006.00 1006.88 1006.93 1007.33 1008.33 1008.93 1010.12 1011.17
1018.69 1018.26 1018.04 1017.51 1017.27 1016.79 1016.32 1015.97 1015.49 1015.04 1015.02 1014.20 1014.19 1014.08 1013.92 1013.64 1011.15 1008.41 1009.12 1009.29 1009.49 1009.45 1008.40 1007.76 1007.35 1007.14 1006.32 1006.01 1005.88 1005.27 1003.89 1003.21 1003.34 1003.65 1004.08 1004.54 1005.19 1005.77 1006.32 1006.15 1006.66 1007.78 1008.95 1010.17 1010.85
1018.51 1018.32 1017.94 1017.47 1016.87 1016.50 1016.21 1015.70 1015.26 1014.79 1014.47 1014.01 1013.86 1013.84 1013.72 1012.61 1009.16 1008.41 1008.93 1008.86 1009.34 1008.77 1008.33 1007.83 1007.42 1006.76 1005.93 1005.59 1005.30 1005.10 1004.45 1003.77 1003.66 1004.14 1004.63 1004.69 1005.00 1005.55 1005.88 1005.77 1006.26 1007.36 1008.88 1009.81 1010.49
1018.59 1018.15 1017.88 1017.20 1016.60 1016.29 1015.75 1015.27 1014.88 1014.39 1013.92 1013.76 1013.67 1013.61 1013.21 1010.58 1008.12 1008.68 1009.14 1009.15 1008.96 1008.44 1007.63 1007.24 1006.81 1006.28 1005.57 1005.15 1005.46 1005.05 1004.08 1004.26 1004.40 1004.90 1004.72 1005.04 1005.00 1005.18 1005.57 1006.48 1006.77 1007.32 1008.79 1009.63 1010.33
1018.46 1017.95 1017.43 1016.93 1016.20 1015.55 1015.09 1014.78 1014.32 1013.86 1013.47 1013.35 1013.33 1013.38 1011.81 1008.87 1008.25 1008.42 1008.75 1008.87 1008.31 1007.96 1007.50 1007.19 1006.54 1006.34 1005.64 1005.29 1005.15 1004.56 1004.44 1004.37 1004.58 1004.64 1005.04 1005.21 1005.00 1005.31 1005.18 1006.04 1007.07 1007.88 1008.62 1009.39 1010.10
1018.26 1017.79 1017.30 1016.45 1015.55 1014.98 1014.61 1013.99 1013.82 1013.24 1012.85 1012.76 1012.96 1012.44 1010.30 1008.41 1008.21 1008.50 1008.57 1008.22 1008.15 1007.86 1007.49 1007.38 1007.31 1006.83 1005.83 1005.45 1005.40 1005.12 1004.77 1004.54 1004.49 1004.71 1004.89 1005.39 1005.40 1005.18 1005.16 1005.97 1007.00 1007.76 1008.46 1009.14 1009.92
1018.04 1017.53 1016.81 1015.87 1015.08 1014.51 1014.04 1013.56 1013.26 1012.76 1012.53 1012.62 1012.62 1011.47 1008.56 1008.31 1008.39 1008.44 1008.24 1008.29 1008.41 1008.25 1007.85 1007.69 1007.60 1006.82 1006.06 1005.94 1005.55 1004.91 1004.62 1003.60 1003.60 1004.74 1005.01 1005.51 1003.61 1003.87 1004.82 1006.15 1006.74 1007.72 1008.37 1009.14 1009.97
1017.72 1016.94 1016.24 1015.39 1014.71 1014.12 1013.62 1013.29 1013.04 1012.78 1012.62 1012.60 1011.86 1010.41 1007.83 1008.77 1008.04 1007.58 1007.77 1007.50 1007.99 1008.12 1008.05 1008.01 1007.49 1006.47 1006.24 1005.31 1004.87 1004.61 1003.24 1003.14 1003.15 1004.20 1004.33 1004.82 1003.41 1003.37 1004.99 1005.95 1006.49 1007.53 1008.44 1009.55 1011.19
1017.26 1016.43 1015.56 1014.76 1014.26 1013.84 1013.31 1013.22 1013.04 1012.74 1012.38 1011.71 1011.00 1009.88 1007.78 1007.32 1007.32 1007.60 1007.71 1007.57 1007.33 1007.59 1007.58 1007.34 1006.66 1005.86 1005.33 1004.81 1003.52 1003.21 1003.40 1003.27 1003.02 1003.88 1004.37 1003.93 1003.54 1004.20 1005.27 1005.63 1006.08 1007.21 1008.35 1010.23 1011.60
1016.91 1015.89 1015.15 1014.61 1014.04 1013.59 1012.93 1012.39 1012.22 1011.37 1010.25 1009.70 1009.27 1008.45 1007.58 1007.36 1007.41 1007.10 1007.33 1007.30 1006.95 1006.78 1006.15 1006.59 1005.62 1004.90 1004.46 1004.98 1004.95 1004.54 1003.97 1003.16 1003.49 1003.91 1003.94 1003.39 1003.35 1003.51 1004.78 1005.42 1005.70 1006.52 1007.69 1009.23 1010.49
1016.53 1015.83 1014.97 1014.41 1013.79 1013.24 1012.53 1010.86 1011.84 1011.71 1009.78 1008.80 1008.58 1008.18 1007.93 1007.75 1006.94 1006.72 1007.00 1006.50 1006.40 1005.72 1006.21 1006.21 1005.11 1005.22 1005.53 1005.59 1005.38 1004.92 1004.25 1003.76 1003.77 1004.10 1003.93 1002.95 1002.90 1002.93 1003.54 1004.54 1005.21 1005.91 1006.93 1008.29 1009.71
1016.40 1015.56 1014.67 1013.96 1013.35 1012.63 1011.53 1011.78 1011.77 1011.48 1009.59 1007.91 1007.58 1007.32 1007.26 1007.46 1006.45 1006.11 1006.49 1005.90 1005.67 1005.47 1005.52 1004.96 1004.81 1005.82 1005.71 1005.52 1005.27 1004.70 1004.26 1003.76 1003.77 1004.09 1004.08 1003.56 1002.74 1002.68 1002.99 1003.79 1004.61 1005.23 1006.13 1007.39 1009.06
1016.02 1015.26 1014.47 1013.66 1013.44 1012.29 1011.55 1011.96 1011.67 1011.52 1008.67 1007.66 1006.70 1006.88 1006.78 1006.84 1006.21 1006.11 1006.00 1005.52 1005.37 1005.01 1005.23 1004.97 1005.09 1005.38 1005.21 1004.94 1004.93 1003.99 1004.05 1004.18 1004.00 1003.93 1002.71 1003.00 1001.68 1001.07 1001.91 1002.64 1003.43 1004.12 1005.21 1006.32 1008.17
1015.83 1015.20 1014.56 1013.94 1012.67 1011.54 1012.02 1011.78 1011.58 1011.18 1008.12 1007.84 1006.59 1006.59 1006.30 1006.17 1005.91 1005.83 1005.97 1005.70 1004.87 1005.06 1005.37 1004.72 1004.98 1004.91 1004.55 1004.27 1004.65 1003.94 1004.57 1004.33 1004.04 1003.61 1003.00 1002.55 1002.27 1000.69 1001.48 1001.71 1001.83 1002.50 1003.74 1005.37 1006.75
1015.61 1014.98 1014.43 1013.36 1012.55 1012.00 1011.83 1011.68 1011.46 1009.55 1007.98 1007.50 1006.92 1006.38 1005.53 1005.56 1005.61 1005.78 1005.91 1005.95 1005.34 1005.18 1005.27 1004.73 1005.07 1004.98 1004.29 1004.57 1004.66 1004.49 1004.46 1004.16 1003.96 1003.15 1002.31 1001.84 1001.17 1000.10 999.70 1000.52 1000.48 1001.23 1002.44 1004.24 1005.73
1015.35 1014.78 1014.38 1013.07 1011.84 1011.82 1011.55 1010.67 1009.29 1008.14 1008.79 1008.07 1007.26 1006.85 1006.22 1006.00 1005.70 1005.70 1005.64 1005.65 1005.17 1005.20 1004.55 1004.44 1004.20 1004.19 1004.48 1004.06 1003.74 1004.26 1003.90 1002.99 1002.64 1002.02 1001.18 1000.97 1000.69 1000.13 999.29 999.66 999.85 999.87 1001.23 1002.99 1004.92
1014.99 1014.65 1013.92 1012.92 1012.22 1011.91 1010.80 1009.40 1008.43 1008.94 1008.59 1008.68 1008.08 1007.40 1006.98 1006.94 1006.32 1005.91 1005.81 1005.94 1006.55 1006.15 1005.01 1004.20 1003.64 1004.03 1004.18 1003.70 1003.16 1003.34 1003.25 1002.41 1001.62 1001.15 1000.49 1001.03 1000.34 999.55 999.44 999.39 999.93 1000.30 1001.09 1002.11 1004.12
1014.65 1013.33 1012.32 1012.15 1012.11 1011.73 1010.06 1008.44 1008.34 1008.84 1009.14 1008.79 1008.32 1007.73 1007.53 1007.48 1007.37 1006.81 1007.29 1007.32 1007.86 1007.52 1006.65 1005.29 1004.58 1004.68 1004.48 1004.17 1003.84 1002.98 1003.23 1002.90 1002.86 1002.52 1001.87 1000.72 999.72 999.79 999.20 999.23 999.44 999.92 1000.65 1001.58 1003.51
1014.67 1012.77 1011.98 1012.10 1012.01 1011.10 1009.51 1009.11 1009.45 1009.74 1009.72 1009.30 1008.50 1008.64 1008.10 1008.14 1007.72 1007.60 1007.83 1009.04 1008.73 1008.51 1008.12 1007.22 1005.99 1005.24 1004.86 1004.55 1004.05 1003.93 1003.90 1003.41 1002.93 1002.30 1001.29 1000.37 999.55 999.18 998.73 998.55 998.35 998.78 1000.06 1001.22 1003.31
1014.42 1012.05 1012.02 1011.85 1011.51 1010.15 1009.03 1009.66 1010.19 1010.43 1010.23 1009.72 1009.50 1009.36 1009.32 1009.06 1008.92 1008.66 1008.96 1009.98 1009.95 1009.40 1008.72 1008.29 1007.51 1005.58 1005.35 1004.41 1004.32 1004.08 1003.68 1003.86 1003.89 1003.20 1001.86 1000.82 999.64 999.00 999.44 999.19 999.23 998.55 999.07 1001.10 1002.97
1014.15 1011.73 1012.17 1011.73 1010.54 1010.49 1010.02 1010.83 1011.95 1011.05 1010.82 1010.38 1010.31 1010.22 1010.11 1010.23 1009.74 1009.54 1009.52 1010.12 1011.01 1010.51 1009.57 1009.64 1008.64 1006.94 1005.79 1005.49 1005.76 1005.33 1004.67 1004.76 1004.14 1003.37 1002.94 1002.29 1000.58 999.90 999.96 999.86 999.67 999.72 999.62 1000.62 1002.66
1014.65 1013.05 1012.22 1011.87 1010.52 1010.76 1011.68 1011.63 1011.81 1011.61 1011.56 1011.08 1010.94 1011.10 1011.33 1010.88 1010.61 1010.40 1010.58 1011.39 1011.59 1011.09 1010.85 1010.34 1008.95 1007.72 1006.33 1005.90 1005.96 1005.45 1005.85 1006.04 1005.99 1005.60 1003.94 1002.57 1000.93 1000.14 1000.00 999.99 999.75 999.91 1000.34 1000.96 1002.89
1015.43 1013.24 1012.64 1012.57 1012.94 1012.31 1012.15 1012.11 1012.15 1012.68 1012.60 1012.37 1011.87 1011.83 1011.66 1011.57 1011.57 1011.04 1011.00 1011.58 1011.99 1011.83 1012.13 1011.68 1010.13 1009.03 1007.41 1006.23 1006.37 1006.34 1006.22 1006.04 1006.05 1005.80 1004.25 1002.93 1001.95 1001.32 1000.89 1000.18 1000.07 1000.58 1000.74 1001.10 1002.68
1016.36 1015.43 1015.74 1013.53 1013.47 1013.50 1013.23 1013.22 1012.76 1012.83 1013.11 1013.11 1012.90 1012.59 1012.31 1012.02 1011.88 1011.76 1011.92 1012.10 1012.08 1012.46 1012.13 1011.85 1010.70 1009.67 1008.90 1008.32 1007.77 1007.07 1006.60 1006.35 1006.02 1005.40 1004.69 1003.75 1002.83 1002.34 1001.58 1001.14 1001.57 1001.62 1001.33 1001.45 1002.19
1017.41 1016.73 1016.39 1015.36 1015.18 1014.48 1014.28 1013.51 1013.42 1013.71 1013.97 1013.41 1013.61 1013.90 1013.58 1013.09 1012.81 1012.66 1013.28 1012.98 1012.57 1012.54 1012.70 1012.57 1011.52 1010.72 1009.54 1008.96 1008.17 1007.06 1006.45 1006.04 1005.53 1005.20 1004.68 1004.13 1003.33 1003.03 1002.60 1002.40 1002.65 1002.66 1002.28 1001.67 1002.09
1018.94 1018.51 1017.41 1016.02 1015.24 1014.82 1014.03 1014.17 1014.37 1014.93 1014.95 1014.62 1014.99 1014.90 1014.58 1014.35 1014.61 1014.61 1014.62 1014.30 1013.88 1013.62 1013.31 1013.11 1012.12 1011.25 1009.45 1008.77 1008.27 1006.78 1005.62 1005.23 1004.85 1004.70 1004.59 1003.95 1003.62 1003.92 1003.76 1003.92 1003.96 1003.70 1003.54 1002.69 1002.46
Wind_Speed
13 14 13 14 14 14 13 12 12 14 12 13 14 14 13 13 15 9 10 1 2 6 5 12 11 12 12 12 9 8 10 11 11 10 5 10 10 7 3 6 7 8 3 17 18
14 14 15 15 16 16 15 14 13 13 13 12 14 14 12 10 11 11 5 2 1 12 10 13 13 14 14 13 8 12 12 13 5 7 6 7 9 11 8 11 9 10 9 20 19
16 17 17 16 16 16 16 15 13 12 14 11 13 13 11 11 8 8 3 7 9 8 13 10 4 13 15 10 13 15 14 11 7 8 5 4 9 9 12 13 11 15 18 20 17
17 17 17 17 16 16 16 15 14 14 13 11 11 11 10 7 2 6 7 9 10 10 11 12 11 12 14 12 12 12 17 12 10 3 7 8 3 11 13 3 8 14 17 20 18
18 18 19 18 17 16 16 15 15 15 13 11 10 8 8 7 1 6 6 10 12 9 11 12 14 14 13 13 10 16 9 13 6 4 9 4 10 12 15 8 6 14 16 18 17
18 19 20 19 18 18 17 16 15 14 10 8 7 6 7 5 3 1 8 13 9 10 8 7 6 6 10 8 15 10 8 5 7 11 8 10 9 10 12 15 11 16 17 15 17
18 19 20 19 20 19 18 15 14 12 9 5 7 6 6 5 4 9 8 0 9 4 5 5 3 9 3 7 4 4 11 10 11 7 7 7 8 14 5 12 13 15 16 15 17
20 19 20 20 20 19 18 16 14 6 5 8 8 5 3 4 3 6 5 6 5 2 1 4 4 3 7 3 7 11 9 12 13 9 6 10 16 20 14 14 15 15 15 16 17
21 20 21 21 20 19 17 15 7 6 8 9 6 5 7 6 5 2 10 5 7 5 5 6 6 2 6 11 10 10 12 14 10 11 7 15 16 8 10 14 15 16 16 14 13
22 22 22 22 21 18 16 5 8 10 6 5 3 6 5 6 3 3 7 10 7 10 8 7 7 9 8 9 9 9 13 6 10 12 13 15 18 6 9 14 15 15 16 15 16
23 23 22 21 20 15 9 6 6 7 6 6 6 5 2 4 4 6 8 12 9 9 9 7 10 10 4 2 7 7 8 6 4 2 11 14 16 13 10 13 15 16 17 18 17
25 23 23 21 20 14 7 4 6 6 5 2 2 5 4 3 4 8 9 11 10 10 5 9 11 0 4 5 6 6 9 11 3 4 9 10 12 11 10 14 15 16 17 17 16
23 23 24 22 18 7 7 7 6 4 7 2 1 4 4 5 3 10 13 10 10 8 10 9 8 5 6 8 9 9 9 8 12 6 8 6 13 13 14 14 15 18 15 17 18
24 23 23 22 5 2 3 5 8 4 6 6 3 5 2 2 5 2 9 7 7 8 5 6 5 8 9 9 9 10 5 7 7 10 12 12 13 14 12 16 18 20 19 18 19
25 23 20 10 3 2 6 8 2 5 6 5 5 2 3 5 2 5 7 7 6 7 9 8 5 5 6 2 4 3 2 5 7 10 15 13 11 13 5 12 18 20 20 20 20
26 23 15 4 2 5 7 3 5 7 3 2 3 6 2 6 4 5 8 7 4 4 7 7 1 7 4 3 7 4 10 8 8 12 13 18 14 14 12 12 14 14 18 19 20
26 22 7 3 5 9 5 5 6 5 2 3 3 4 3 6 7 1 9 8 5 9 12 9 11 11 6 10 12 9 11 10 11 10 13 2 7 12 10 7 11 10 11 18 20
27 14 5 3 6 7 5 6 5 2 2 2 2 2 3 9 7 3 9 9 7 8 9 6 9 6 6 7 4 6 5 9 7 9 7 7 8 10 8 8 9 7 8 14 20
26 2 3 7 5 5 7 7 4 3 1 1 3 3 3 3 3 3 10 6 8 10 7 6 3 3 2 7 8 5 10 5 9 10 10 14 11 8 14 12 12 11 11 14 20
6 3 4 11 5 6 6 4 4 3 1 3 2 3 1 3 2 2 2 7 4 7 5 5 7 3 2 6 5 9 7 6 11 14 18 12 9 9 7 8 11 8 11 13 18
4 5 7 10 4 6 5 4 6 4 1 2 1 2 1 2 3 1 2 6 8 8 5 6 4 4 6 0 9 5 10 6 7 9 11 14 11 1 6 12 16 20 11 12 16
5 4 7 8 5 1 2 2 2 2 0 2 2 1 3 1 3 3 2 4 7 5 5 5 6 9 13 6 7 9 6 6 8 8 9 8 12 17 13 13 14 12 15 8 14
6 4 3 5 3 3 4 4 2 3 1 2 4 2 2 3 4 3 2 4 7 5 5 4 4 8 9 10 6 6 1 4 5 7 11 12 10 2 12 16 12 13 11 7 11
5 3 3 3 2 3 1 2 4 2 2 1 0 3 5 6 4 2 5 2 5 4 3 3 9 10 10 11 10 12 13 12 8 8 13 13 16 14 18 16 17 18 11 7 13
3 4 5 2 5 2 2 1 4 5 1 2 4 3 3 4 7 9 4 5 4 2 3 5 9 11 11 14 15 17 18 15 17 17 18 17 20 18 21 21 19 20 17 10 15
5 4 2 1 2 4 3 5 7 4 3 5 9 2 4 6 7 7 2 4 5 2 3 4 8 10 15 16 18 21 20 20 21 21 23 21 21 21 19 17 20 20 20 13 14
2 1 5 4 4 5 1 2 3 3 1 2 2 6 7 3 3 7 8 10 11 9 7 6 7 8 12 6 9 14 19 20 18 18 17 19 14 15 17 18 20 19 19 18 11
Wind_Direction
352 348 343 339 330 335 328 329 328 320 322 326 321 317 315 316 298 216 250 81 114 120 226 149 185 193 204 214 229 244 240 235 215 222 210 130 189 163 178 176 181 162 145 129 146
348 344 341 336 337 330 325 328 324 321 314 324 315 311 315 322 276 252 86 105 283 162 196 185 179 185 198 213 207 223 230 234 236 212 248 148 209 158 184 187 172 144 131 133 151
349 345 337 337 332 329 326 322 318 317 310 320 310 307 312 300 268 96 87 206 202 207 222 219 207 199 216 212 209 218 247 236 217 249 260 185 204 174 215 190 188 171 147 155 163
347 339 336 333 332 329 320 317 314 311 307 311 301 302 304 254 344 74 351 183 176 202 201 202 213 207 218 207 202 235 235 261 239 144 221 220 223 204 226 69 176 173 161 165 168
340 336 333 332 329 324 321 318 313 308 307 299 291 289 265 231 29 86 118 135 161 185 186 193 204 217 224 211 199 229 238 232 215 233 228 213 238 220 213 127 180 160 167 174 175
335 333 333 329 328 328 326 318 313 310 298 281 257 262 246 263 52 101 129 154 175 192 186 211 225 223 263 227 218 203 229 224 221 230 211 228 230 214 222 165 168 166 176 175 177
331 330 329 329 332 331 326 325 317 310 282 220 211 232 248 12 89 121 154 227 171 191 198 196 240 220 167 176 201 207 215 213 214 208 215 240 208 227 197 165 186 186 186 178 182
329 327 330 333 334 332 332 330 320 338 114 158 186 240 324 119 169 219 193 138 184 192 3 196 192 276 264 52 196 218 237 216 184 193 166 219 240 204 184 189 186 190 185 184 182
329 329 331 335 336 334 334 328 318 111 127 152 211 272 113 139 198 147 196 186 159 146 94 152 225 278 182 210 195 211 239 215 169 201 180 216 242 106 157 198 193 190 188 182 178
331 330 333 336 336 334 327 276 126 158 180 228 254 227 182 105 65 120 187 165 154 154 154 190 208 212 215 224 237 210 231 218 243 175 219 211 244 125 194 203 203 196 190 190 193
332 334 335 334 331 330 300 187 218 170 208 357 337 310 322 311 229 162 172 188 166 200 193 199 226 217 207 351 336 309 290 260 113 180 225 228 225 203 190 209 213 205 201 196 200
334 335 332 332 327 318 266 38 46 357 307 139 296 277 296 295 230 189 183 195 200 206 165 195 230 257 248 213 245 244 245 239 207 233 240 206 235 233 192 224 223 219 215 205 193
332 336 333 331 323 278 48 58 345 297 260 35 34 353 28 193 218 161 197 210 214 207 210 274 83 120 204 197 229 224 261 259 265 148 245 272 247 241 234 229 231 235 222 211 185
335 338 335 326 294 23 85 345 321 243 249 45 87 80 172 265 173 235 227 217 210 229 191 258 69 231 224 234 229 248 195 245 233 235 242 193 260 205 219 227 229 230 222 213 182
336 337 335 335 348 357 1 325 316 227 224 29 27 351 44 280 4 136 190 221 219 163 228 102 175 184 222 231 198 25 185 286 252 243 261 215 249 267 197 236 242 229 219 215 193
335 334 331 209 225 23 318 316 223 227 116 102 358 350 143 47 91 119 174 232 328 217 237 284 193 276 270 224 236 295 259 233 248 244 230 241 231 260 197 233 240 224 221 209 203
333 330 290 296 2 337 310 212 240 293 144 62 355 337 39 22 59 57 165 190 269 219 212 203 231 220 244 252 220 226 244 243 212 208 243 181 252 258 282 231 258 257 215 202 196
328 321 164 337 313 311 252 232 246 81 44 21 323 49 56 6 44 98 168 131 50 314 289 280 160 177 163 266 334 209 283 288 283 265 253 155 250 250 261 288 274 277 252 197 187
314 190 221 4 324 290 258 235 56 140 85 329 198 228 144 57 322 150 80 49 35 16 319 307 208 342 249 292 267 149 234 330 289 258 267 278 258 241 237 244 254 254 223 199 182
313 271 57 339 321 267 253 56 134 107 202 232 248 294 226 34 273 319 97 33 15 25 335 28 285 111 355 281 222 270 5 235 220 253 264 257 242 273 293 277 278 232 224 193 178
268 256 41 341 264 247 270 83 139 107 301 251 194 211 3 354 334 92 69 84 17 357 327 347 266 199 271 275 338 266 236 218 305 304 290 274 265 72 305 326 332 313 198 180 180
307 261 20 327 234 288 151 57 297 126 226 167 202 273 267 214 272 270 196 37 12 330 331 50 308 285 291 329 299 262 291 287 274 239 240 300 292 310 294 308 316 315 305 176 184
334 324 22 305 265 146 133 131 73 196 83 204 170 255 218 251 256 223 186 108 13 354 351 2 218 262 238 189 210 226 155 312 309 294 268 272 273 83 313 296 315 333 320 175 194
295 273 92 63 64 342 213 176 172 77 84 301 220 214 197 235 224 246 217 121 341 357 2 260 253 258 280 312 334 288 278 280 257 275 284 273 289 290 286 297 322 331 330 225 186
356 67 2 29 85 48 234 245 219 195 213 264 184 248 235 236 246 241 236 272 225 73 209 315 263 260 267 270 275 277 278 273 268 267 259 276 279 287 292 307 322 318 312 251 190
328 321 168 72 286 248 155 187 238 164 268 195 263 184 238 247 264 304 280 235 278 218 308 302 274 280 275 269 262 267 266 264 262 262 270 273 278 280 284 313 314 324 325 274 214
71 142 287 122 190 248 206 203 200 209 180 351 317 266 236 303 339 308 287 279 273 280 281 273 277 264 275 277 288 271 250 255 260 263 263 268 293 328 311 323 327 323 311 308 250